sat.trackr.live / text

‹ back to catalog

STARLINK-33646

NORAD 63280 · 2025-053R

PAYLOAD ACTIVE UNKNOWN

§ Identity

Operator
Country
US
Launch date
2025-03-15
Launch site
AFETR
Launch vehicle
Mass (kg)
RCS (m²)

Purposes: comms

External: N2YO · Heavens-Above · Gunter

§ Orbital elements

Epoch: 2026-05-24T10:58:23.028672Z

Period
94.27 min
Inclination
43.0012°
Eccentricity
0.0001277
Mean motion
15.27597636 rev/d
Perigee alt
482.1 km
Apogee alt
483.9 km
Semi-major
6,861.1 km
B*
2.6393e-4
RAAN
173.6646°
Arg perigee
269.8991°
Mean anomaly
90.1714°
Rev number
6,778

§ Raw data

STARLINK-336461 63280U 25053R   26144.45721098  .00007012  00000+0  26393-3 0  99922 63280  43.0012 173.6646 0001277 269.8991  90.1714 15.27597636 67786

JSON: /api/v1/satellites/63280 · /tle

For live sub-satellite position, see the globe view (requires WebGL).

§ Visibility from observer

Set your observer location to see the next 7 days of passes ≥ 10°. The values pass through the URL so the page stays shareable.

No JS? Fill the form by hand. The geolocation button needs JavaScript.